Starlink 32551

operational
NORAD ID: 62166 Int'l Des: 2024-225 Owner: SPXS Country: US Constellation: starlink
LEOCIRCULAR

Starlink 32551について

説明を読み込み中...

リアルタイム位置

3D地球を読み込み中...

次回通過

高度履歴

Altitude vs Time

uPlot chart will show altitude changes over time

軌道要素

1 62166U 24225D 25257.42248064 .00004237 00000-0 36267-3 0 9990
2 62166 70.0001 248.8198 0004099 269.3076 90.7614 14.98331287 43477
Epoch: Sep 14, 2025 • Age: 25 hours

現在のステータス

高度 587.0 km
速度 7.57 km/s
衛星直下点 -46.07°S, 74.34°W
打ち上げ日 Nov 30, 2024
運用期間 0.7 years
タイプ internet

技術仕様

分類 Payload
質量 730.00 kg
乾燥質量 700.00 kg
総質量 730.00 kg
長さ 0.30 m
直径 4.10 m
スパン 29.00 m
形状 Box + pan
製造者 SPXS
バスタイプ Starlink V2M
フェーズステータス In Orbit
所有者/国 SPXS/US

大規模コンステレーション

Loading constellations...